#timestamp,LO_Frequency,Hit 
1498154415.1,286047006.4,N
1498154435.8,286047006.6,N
1498154455.7,286047007.3,N
1498154475.5,286047006.8,N
1498154495.3,286047006.1,N
1498154515.2,286047006.3,N
1498154535.9,286047006.3,N
1498154555.7,286047006.8,N
1498154575.6,286047008.5,Y
1498154595.4,286047002.8,N
1498154615.2,286047001.5,N
1498154635.1,286047002.8,N
1498154636.0,286047002.8,N
1498154655.8,286047002.3,N
1498154675.6,286047002.4,N
1498154695.4,286047003.7,N
1498154715.3,286047003.7,N
1498154735.1,286047004.4,N
1498154755.8,286047001.8,N
1498154775.7,286047001.3,N
1498154795.5,286047003.7,N
1498154815.3,286047004.2,N
1498154835.2,286047003.6,N
1498154855.9,286047002.9,N
1498154875.7,286047005.3,N
1498154895.6,286047005.6,N
1498154915.4,286047005.5,N
1498154935.2,286047004.8,N
1498154955.0,286047005.2,N
1498154956.0,286047005.2,N
1498154975.8,286047005.0,N
1498154995.6,286047007.2,N
1498155015.4,286047007.6,N
1498155035.3,286047007.2,N
1498155055.1,286047007.0,N
1498155075.8,286047007.0,N
1498155095.7,286047007.4,N
1498155115.5,286047006.8,N
1498155135.3,286047007.2,N
1498155155.2,286047004.5,N
1498155175.9,286047007.2,N
1498155195.7,286047006.3,N
1498155215.6,286047006.4,N
1498155235.4,286047006.4,N
1498155255.2,286047009.1,Y
1498155275.1,286047001.8,N
1498155276.0,286047001.8,N
1498155295.8,286047004.0,N
1498155315.6,286047003.5,N
1498155335.4,286047003.7,N
1498155355.3,286047003.5,N
1498155375.1,286047001.3,N
1498155395.8,286047001.6,N
1498155415.7,286047002.1,N
1498155435.5,286047003.3,N
1498155455.3,286047003.8,N
1498155475.2,286047005.7,N
1498155495.9,286047004.8,N
1498155515.7,286047005.5,N
1498155535.6,286047005.9,N
1498155555.4,286047006.0,N
1498155575.2,286047007.4,N
1498155595.0,286047005.2,N
1498155596.0,286047005.2,N
1498155615.8,286047007.1,N
1498155635.6,286047006.8,N
1498155655.4,286047004.6,N
1498155675.3,286047004.7,N
1498155695.1,286047004.5,N
1498155715.8,286047006.3,N
1498155735.7,286047007.3,N
1498155755.5,286047006.3,N
1498155775.3,286047006.4,N
1498155795.2,286047006.5,N
1498155815.9,286047009.1,Y
1498155835.7,286047004.4,N
1498155855.6,286047001.4,N
1498155875.4,286047004.3,N
1498155895.2,286047001.4,N
1498155915.1,286047003.2,N
1498155916.0,286047003.2,N
1498155935.8,286047005.9,N
1498155955.6,286047006.0,N
1498155975.5,286047003.7,N
1498155995.3,286047005.1,N
1498156015.1,286047004.9,N
1498156035.8,286047007.5,N
1498156055.7,286047004.7,N
1498156075.5,286047006.7,N
1498156095.3,286047007.3,N
1498156115.2,286047006.8,N
1498156135.9,286047004.6,N
1498156155.7,286047006.8,N
1498156175.6,286047007.0,N
1498156195.4,286047006.2,N
1498156215.2,286047007.4,N
1498156235.1,286047006.5,N
1498156236.0,286047006.5,N
1498156255.8,286047009.0,Y
1498156275.6,286047003.5,N
1498156295.5,286047003.2,N
1498156315.3,286047005.6,N
1498156335.1,286047003.2,N
1498156355.8,286047003.3,N
1498156375.7,286047006.0,N
1498156395.5,286047003.1,N
1498156415.3,286047004.8,N
1498156435.2,286047007.5,N
1498156455.9,286047004.5,N
1498156475.7,286047007.0,N
1498156495.6,286047004.9,N
1498156515.4,286047007.0,N
1498156535.2,286047005.1,N
1498156555.1,286047009.2,Y
1498156556.0,286047009.2,Y
1498156575.8,286046995.7,N
1498156595.6,286046995.5,N
1498156615.5,286046997.6,N
1498156635.3,286046997.8,N
1498156655.1,286046997.4,N
1498156675.9,286046999.6,N
1498156695.7,286046997.3,N
1498156715.5,286046999.3,N
1498156735.4,286046998.9,N
1498156755.2,286046999.2,N
1498156775.0,286046997.3,N
1498156775.9,286046997.3,N
1498156795.7,286046996.7,N
1498156815.6,286046999.0,N
1498156835.4,286046999.4,N
1498156855.2,286046998.9,N
1498156875.1,286046998.3,N
1498156876.0,286046998.3,N
1498156895.8,286046998.3,N
1498156915.6,286046999.4,N
1498156935.5,286047001.2,N
1498156955.3,286047000.3,N
1498156975.1,286046998.5,N
1498156995.9,286046999.3,N
1498157015.7,286047000.3,N
1498157035.5,286047000.3,N
1498157055.4,286047001.3,N
1498157075.2,286047002.1,N
1498157095.0,286047002.0,N
1498157095.9,286047002.0,N
1498157115.7,286047004.4,N
1498157135.6,286047004.3,N
1498157155.4,286047005.7,N
1498157175.2,286047005.9,N
1498157195.1,286047002.9,N
1498157196.0,286047002.9,N
1498157215.8,286047003.3,N
1498157235.6,286047005.5,N
1498157255.5,286047003.4,N
1498157275.3,286047005.2,N
1498157295.1,286047004.8,N
1498157315.9,286047004.9,N
1498157335.7,286047005.2,N
1498157355.5,286047005.8,N
1498157375.4,286047005.0,N
1498157395.2,286047005.8,N
1498157415.0,286047004.5,N
1498157415.9,286047004.5,N
1498157435.7,286047006.3,N
1498157455.6,286047008.6,Y
1498157475.4,286047003.9,N
1498157495.2,286047004.4,N
1498157515.1,286047003.6,N
1498157516.0,286047003.6,N
1498157535.8,286047005.4,N
1498157555.6,286047005.9,N
1498157575.5,286047003.3,N
1498157595.3,286047005.4,N
1498157615.1,286047005.0,N
1498157635.9,286047005.1,N
1498157655.7,286047004.5,N
1498157675.5,286047007.2,N
1498157695.4,286047004.9,N
1498157715.2,286047004.9,N
1498157735.0,286047007.3,N
1498157735.9,286047007.3,N
1498157755.8,286047006.7,N
1498157775.6,286047007.2,N
1498157795.4,286047007.2,N
1498157815.3,286047008.5,Y
1498157835.1,286047005.1,N
1498157836.0,286047005.1,N
1498157855.8,286047003.2,N
1498157875.6,286047005.7,N
1498157895.5,286047005.7,N
1498157915.3,286047005.8,N
1498157935.1,286047004.8,N
1498157955.9,286047007.1,N
1498157975.7,286047006.8,N
1498157995.5,286047006.7,N
